Regional Weather Roundup
Issued by NWS

Home | Current Version | Previous Version | Text Only | Print | Product List | Glossary On
Versions: 1 2 3 4 5 6 7 8 9 10 11 12 13 14 15 16 17 18 19 20 21 22 23 24 25 26 27 28 29 30 31 32 33 34 35 36 37 38 39 40 41 42 43 44 45 46 47 48 49 50
000
ASUS43 KIND 242159
RWRIN

WEATHER ROUNDUP FOR INDIANA
NATIONAL WEATHER SERVICE INDIANAPOLIS IN
600 PM EDT WED AUG 24 2016

NOTE: "FAIR" INDICATES FEW OR NO CLOUDS BELOW 12,000 FEET WITH NO
SIGNIFICANT WEATHER AND/OR OBSTRUCTIONS TO VISIBILITY.

* - STATION DOES NOT REPORT WEATHER SUCH AS PRECIPITATION OR FOG.

+ - STATION NOT QUALITY CONTROLLED BY THE NATIONAL WEATHER SERVICE.
    USE DATA WITH CAUTION...ESPECIALLY DEWPOINT AND RELATIVE
    HUMIDITY OBSERVATIONS.

INZ001>003-010>013-019-020-242300-
NORTHWEST INDIANA

CITY           SKY/WX    TMP DP  RH WIND       PRES   REMARKS
GARY /AIRPORT/ PTSUNNY   84  72  65 W23       29.93R
KNOX *+        CLOUDY    72  55  56 W9G17     29.95R
MONTICELLO +   CLOUDY    79  72  80 SW6       29.94F
RENSSELAER +   CLOUDY    82  72  69 W13G22    29.96R

$$

LMZ046-743>745-242300-
SOUTHERN LAKE MICHIGAN

STATION/POSITION TIME  TEMP    WIND        PRES    WAVE
                       AIR SEA DIR/SP/G            HT
                 (UTC) (F)     (DEG/KT/KT) (MB)    (FT)
BURNS HARBOR     2108   78     220/ 10     1013.5
MICHIGAN CITY    2100   80     190/ 12/ 15   N/A
5NW MICH CITY    2100   78 74  230/  8/ 12   N/A     2

$$

INZ004-005-014>016-021>024-242300-
NORTH CENTRAL INDIANA

CITY           SKY/WX    TMP DP  RH WIND       PRES   REMARKS
ELKHART        CLOUDY    81  73  78 SW12      29.96F
GOSHEN         CLOUDY    79  72  79 S13       29.96F
PERU/GRISSOM   PTSUNNY   81  73  78 S14       29.95F
SOUTH BEND     MOSUNNY   81  74  79 S10       29.95S

$$

INZ006>009-017-018-025>027-242300-
NORTHEAST INDIANA

CITY           SKY/WX    TMP DP  RH WIND       PRES   REMARKS
ANGOLA *+      MOSUNNY   79  72  78 S12       29.98F
FORT WAYNE     CLOUDY    78  73  84 S13       30.00R

$$

INZ028-029-035-036-043>045-051>053-242300-
WEST CENTRAL INDIANA

CITY           SKY/WX    TMP DP  RH WIND       PRES   REMARKS
CRAWFORDSVL +  PTSUNNY   83  78  84 SW9       29.99S
GREENCASTLE +  CLOUDY    82  81  94 SW5       30.02S HX  95
LAFAYETTE      LGT RAIN  80  76  87 NW16      29.94S FOG
TERRE HAUTE    CLOUDY    86  75  69 SW8       30.01S HX  95

$$

INZ030>032-037>040-046>048-054>057-064-065-242300-
CENTRAL INDIANA

CITY           SKY/WX    TMP DP  RH WIND       PRES   REMARKS
COLUMBUS       MOSUNNY   86  75  70 SW16G25   30.04S HX  95
INDIANAPOLIS   CLOUDY    81  75  82 CALM      30.03R THUNDER
-EAGLE CREEK   CLOUDY    79  74  84 E9        30.02F
MT COMFORT *+  CLOUDY    72  70  94 S10       30.05S VSB 1/2
SHELBYVILLE    TSTM      80  73  79 N15       30.04R

$$

INZ033-034-041-042-049-050-058-059-242300-
EAST CENTRAL INDIANA

CITY           SKY/WX    TMP DP  RH WIND       PRES   REMARKS
MUNCIE         CLOUDY    80  74  81 SW12G20   30.03R

$$

INZ060-061-067>069-081>083-085>088-242300-
SOUTHWEST INDIANA

CITY           SKY/WX    TMP DP  RH WIND       PRES   REMARKS
EVANSVILLE     PTSUNNY   89  72  56 SW15G23   30.05F HX  96
HUNTINGBURG *+ CLOUDY    88  73  62 S12G18    30.06F HX  96

$$

INZ062-063-066-070>080-084-089>092-242300-
SOUTH CENTRAL AND SOUTHEAST INDIANA

CITY           SKY/WX    TMP DP  RH WIND       PRES   REMARKS
BLOOMINGTON    TSTM      83  74  74 SW14G25   30.04F
MADISON *+     MOSUNNY   88  72  58 S7        30.10S

$$




USA.gov is the U.S. government's official web portal to all federal, state and local government web resources and services.